• In Portugal
  • List of Countries
  • For 7 days
  • Water Temperature
  • Satellite Maps
  • Weather Map
  • Weather Widgets
  • user-avatar
    Login

    Hourly Weather Blunaki

    Today, 20 October, Saturday

    Time Temperature Precipitation Wind Pressure Humidity
    00:00 +7°C° 0 mm 1 mps 759 mmHg 85%
    01:00 +7°C° 0 mm 1 mps 759 mmHg 85%
    02:00 +7°C° 0 mm 1 mps 759 mmHg 85%
    03:00 +7°C° 0 mm 1 mps 759 mmHg 85%
    04:00 +7°C° 0 mm 1 mps 759 mmHg 85%
    05:00 +7°C° 0 mm 1 mps 759 mmHg 82%
    06:00 +7°C° 0 mm 1 mps 759 mmHg 80%
    07:00 +8°C° 0 mm 1 mps 759 mmHg 78%
    08:00 +9°C° 0 mm 1 mps 759 mmHg 73%
    09:00 +9°C° 0 mm 2 mps 760 mmHg 68%
    10:00 +12°C° 0 mm 2 mps 760 mmHg 63%
    11:00 +12°C° 0 mm 2 mps 760 mmHg 60%
    12:00 +13°C° 0 mm 2 mps 759 mmHg 58%
    13:00 +13°C° 0 mm 3 mps 759 mmHg 56%
    14:00 +12°C° 0.1 mm 3 mps 759 mmHg 60%
    15:00 +11°C° 0.1 mm 3 mps 759 mmHg 64%
    16:00 +11°C° 0.1 mm 3 mps 759 mmHg 69%
    17:00 +10°C° 0.1 mm 3 mps 759 mmHg 72%
    18:00 +9°C° 0.1 mm 3 mps 759 mmHg 76%
    19:00 +9°C° 0.1 mm 2 mps 760 mmHg 80%
    20:00 +8°C° 0 mm 2 mps 760 mmHg 81%
    21:00 +8°C° 0 mm 2 mps 760 mmHg 83%
    22:00 +7°C° 0 mm 2 mps 760 mmHg 84%
    23:00 +7°C° 0 mm 2 mps 760 mmHg 87%

    Tomorrow, 21 October, Sunday

    Time Temperature Precipitation Wind Pressure Humidity
    00:00 +7°C° 0 mm 2 mps 760 mmHg 89%
    01:00 +7°C° 0 mm 1 mps 760 mmHg 91%
    02:00 +7°C° 0 mm 1 mps 760 mmHg 92%
    03:00 +7°C° 0 mm 1 mps 760 mmHg 93%
    04:00 +7°C° 0 mm 1 mps 760 mmHg 94%
    05:00 +7°C° 0 mm 1 mps 761 mmHg 94%
    06:00 +7°C° 0 mm 1 mps 761 mmHg 94%
    07:00 +7°C° 0 mm 1 mps 761 mmHg 95%
    08:00 +8°C° 0 mm 1 mps 762 mmHg 88%
    09:00 +10°C° 0 mm 1 mps 762 mmHg 81%
    10:00 +12°C° 0 mm 1 mps 762 mmHg 74%
    11:00 +12°C° 0 mm 1 mps 762 mmHg 69%
    12:00 +13°C° 0 mm 1 mps 762 mmHg 64%
    13:00 +14°C° 0 mm 1 mps 762 mmHg 59%
    14:00 +13°C° 0 mm 1 mps 762 mmHg 62%
    15:00 +13°C° 0 mm 1 mps 762 mmHg 64%
    16:00 +12°C° 0 mm 1 mps 762 mmHg 66%
    17:00 +11°C° 0 mm 1 mps 762 mmHg 70%
    18:00 +10°C° 0 mm 1 mps 762 mmHg 73%
    19:00 +9°C° 0 mm 2 mps 762 mmHg 77%
    20:00 +8°C° 0 mm 2 mps 762 mmHg 79%
    21:00 +8°C° 0 mm 2 mps 762 mmHg 81%
    22:00 +7°C° 0 mm 2 mps 762 mmHg 83%
    23:00 +7°C° 0 mm 2 mps 761 mmHg 85%

    Day after tomorrow, 22 October, Monday

    Time Temperature Precipitation Wind Pressure Humidity
    00:00 +7°C° 0 mm 3 mps 761 mmHg 87%
    01:00 +7°C° 0 mm 3 mps 761 mmHg 89%
    02:00 +5°C° 0 mm 3 mps 761 mmHg 90%
    03:00 +5°C° 0 mm 3 mps 760 mmHg 91%
    04:00 +5°C° 0 mm 3 mps 760 mmHg 92%
    05:00 +5°C° 0 mm 3 mps 760 mmHg 92%
    06:00 +5°C° 0 mm 3 mps 760 mmHg 92%
    07:00 +5°C° 0 mm 3 mps 759 mmHg 93%
    08:00 +6°C° 0 mm 4 mps 759 mmHg 84%
    09:00 +8°C° 0 mm 4 mps 759 mmHg 76%
    10:00 +10°C° 0 mm 5 mps 759 mmHg 67%
    11:00 +12°C° 0 mm 5 mps 759 mmHg 64%
    12:00 +12°C° 0 mm 5 mps 758 mmHg 61%
    13:00 +13°C° 0 mm 5 mps 758 mmHg 58%
    14:00 +12°C° 0.4 mm 5 mps 758 mmHg 65%
    15:00 +11°C° 0.4 mm 4 mps 757 mmHg 71%
    16:00 +10°C° 0.4 mm 4 mps 757 mmHg 78%
    17:00 +10°C° 0.4 mm 4 mps 757 mmHg 79%
    18:00 +8°C° 0.4 mm 4 mps 757 mmHg 80%
    19:00 +8°C° 0.4 mm 4 mps 758 mmHg 81%
    20:00 +8°C° 0.1 mm 4 mps 758 mmHg 79%
    21:00 +7°C° 0.1 mm 4 mps 758 mmHg 77%
    22:00 +7°C° 0.1 mm 4 mps 758 mmHg 75%
    23:00 +7°C° 0 mm 4 mps 758 mmHg 75%

    23 October, Tuesday

    Time Temperature Precipitation Wind Pressure Humidity
    00:00 +6°C° 0 mm 4 mps 758 mmHg 75%
    01:00 +7°C° 0 mm 3 mps 758 mmHg 75%
    02:00 +5°C° 0 mm 3 mps 758 mmHg 77%
    03:00 +5°C° 0 mm 3 mps 758 mmHg 79%
    04:00 +4°C° 0 mm 3 mps 758 mmHg 81%
    05:00 +4°C° 0 mm 3 mps 757 mmHg 83%
    06:00 +4°C° 0 mm 3 mps 757 mmHg 84%
    07:00 +3°C° 0 mm 3 mps 757 mmHg 85%
    08:00 +5°C° 0 mm 4 mps 757 mmHg 79%
    09:00 +6°C° 0 mm 5 mps 756 mmHg 73%
    10:00 +8°C° 0 mm 6 mps 756 mmHg 66%
    11:00 +8°C° 0.1 mm 7 mps 754 mmHg 66%
    12:00 +7°C° 0.1 mm 8 mps 753 mmHg 66%
    13:00 +7°C° 0.1 mm 9 mps 752 mmHg 66%
    14:00 +7°C° 1.1 mm 9 mps 750 mmHg 71%
    15:00 +6°C° 1.1 mm 10 mps 749 mmHg 76%
    16:00 +6°C° 1.1 mm 11 mps 747 mmHg 81%
    17:00 +6°C° 1.3 mm 11 mps 745 mmHg 81%
    18:00 +6°C° 1.3 mm 11 mps 744 mmHg 82%
    19:00 +7°C° 1.3 mm 12 mps 742 mmHg 82%
    20:00 +7°C° 2.3 mm 12 mps 740 mmHg 83%
    21:00 +8°C° 2.3 mm 11 mps 739 mmHg 84%
    22:00 +9°C° 2.3 mm 11 mps 737 mmHg 85%
    23:00 +9°C° 1 mm 11 mps 737 mmHg 82%

    24 October, Wednesday

    Time Temperature Precipitation Wind Pressure Humidity
    00:00 +9°C° 1 mm 11 mps 736 mmHg 78%
    01:00 +9°C° 1 mm 10 mps 736 mmHg 74%
    02:00 +8°C° 0.4 mm 10 mps 737 mmHg 75%
    03:00 +8°C° 0.4 mm 10 mps 738 mmHg 76%
    04:00 +7°C° 0.4 mm 9 mps 739 mmHg 77%
    05:00 +7°C° 0.3 mm 9 mps 739 mmHg 75%
    06:00 +6°C° 0.3 mm 9 mps 740 mmHg 74%
    07:00 +6°C° 0.3 mm 9 mps 741 mmHg 72%
    08:00 +6°C° 0.1 mm 9 mps 742 mmHg 66%
    09:00 +6°C° 0.1 mm 10 mps 742 mmHg 60%
    10:00 +6°C° 0.1 mm 10 mps 743 mmHg 54%
    11:00 +6°C° 0.1 mm 10 mps 744 mmHg 52%
    12:00 +6°C° 0.1 mm 10 mps 744 mmHg 50%
    13:00 +6°C° 0.1 mm 11 mps 745 mmHg 48%
    14:00 +6°C° 0.1 mm 9 mps 745 mmHg 49%
    15:00 +5°C° 0.1 mm 8 mps 745 mmHg 51%
    16:00 +5°C° 0.1 mm 7 mps 746 mmHg 52%
    17:00 +5°C° 0.1 mm 7 mps 746 mmHg 55%
    18:00 +4°C° 0.1 mm 6 mps 746 mmHg 57%
    19:00 +4°C° 0.1 mm 6 mps 747 mmHg 59%
    20:00 +4°C° 0.1 mm 6 mps 747 mmHg 61%
    21:00 +4°C° 0.1 mm 6 mps 747 mmHg 62%
    22:00 +4°C° 0.1 mm 6 mps 748 mmHg 64%
    23:00 +5°C° 0 mm 5 mps 748 mmHg 65%

    25 October, Thursday

    Time Temperature Precipitation Wind Pressure Humidity
    00:00 +3°C° 0 mm 5 mps 748 mmHg 67%
    01:00 +4°C° 0 mm 4 mps 748 mmHg 69%
    02:00 +3°C° 0 mm 5 mps 747 mmHg 71%
    03:00 +3°C° 0 mm 5 mps 747 mmHg 73%
    04:00 +2°C° 0 mm 5 mps 747 mmHg 75%
    05:00 +3°C° 0.4 mm 6 mps 746 mmHg 78%
    06:00 +4°C° 0.4 mm 6 mps 745 mmHg 82%
    07:00 +5°C° 0.4 mm 7 mps 744 mmHg 86%
    08:00 +6°C° 0.3 mm 8 mps 743 mmHg 82%
    09:00 +7°C° 0.3 mm 9 mps 743 mmHg 77%
    10:00 +9°C° 0.3 mm 10 mps 742 mmHg 73%
    11:00 +9°C° 0.1 mm 10 mps 742 mmHg 74%
    12:00 +10°C° 0.1 mm 9 mps 742 mmHg 74%
    13:00 +10°C° 0.1 mm 9 mps 741 mmHg 75%
    14:00 +10°C° 0.2 mm 9 mps 741 mmHg 74%
    15:00 +10°C° 0.2 mm 9 mps 741 mmHg 73%
    16:00 +10°C° 0.2 mm 9 mps 741 mmHg 72%
    17:00 +10°C° 0.1 mm 9 mps 741 mmHg 71%
    18:00 +8°C° 0.1 mm 9 mps 740 mmHg 70%
    19:00 +8°C° 0.1 mm 9 mps 740 mmHg 69%
    20:00 +9°C° 0.3 mm 8 mps 740 mmHg 71%
    21:00 +9°C° 0.3 mm 8 mps 739 mmHg 73%
    22:00 +7°C° 0.3 mm 8 mps 739 mmHg 75%
    23:00 +7°C° 0.3 mm 9 mps 739 mmHg 72%
    Show more